FW8200 Weather Reports


time (UTC)temp
C
wind
direction
speed
KPH
gust
KPH
rain 1hr
cm
rain 24hr
cm
rain mn
cm
humidity
%
barometer
mb
20260505153308 11 79 0.0 4.8 0.00 1.04 1.04 91 1006.7
20260505152805 11 52 0.0 12.9 0.00 1.04 1.04 92 1006.8
20260505152304 11 49 0.0 3.2 0.00 1.04 1.04 93 1007.0
20260505151755 11 49 3.2 11.3 0.00 1.04 1.04 93 1006.7
20260505151253 11 61 1.6 3.2 0.00 1.04 1.04 93 1006.8
20260505150750 11 13 3.2 8.0 0.00 1.04 1.04 94 1007.1
20260505150247 11 12 0.0 9.7 0.00 1.04 1.04 94 1007.4
20260505140217 11 30 3.2 4.8 0.00 1.04 1.04 97 1005.5
20260505130141 12 321 0.0 3.2 0.00 1.04 1.04 99 1006.1
20260505124631 12 40 0.0 3.2 0.00 1.04 1.04 99 1005.6
20260505124127 12 28 3.2 3.2 0.00 1.04 1.04 99 1005.3
20260505123623 12 54 1.6 9.7 0.00 1.04 1.04 99 1005.0
20260505123120 12 43 4.8 8.0 0.00 1.04 1.04 99 1004.9
20260505122617 12 30 0.0 3.2 0.00 1.04 1.04 99 1004.9
20260505122114 12 30 4.8 9.7 0.00 1.04 1.04 99 1005.1
20260505121610 12 37 0.0 1.6 0.00 1.04 1.04 99 1005.3
20260505121107 13 37 4.8 8.0 0.00 1.04 1.04 99 1004.9
20260505120604 13 34 0.0 3.2 0.00 1.04 1.04 99 1004.5
20260505120059 13 49 0.0 4.8 0.00 1.04 1.04 99 1004.3
20260505115554 13 52 1.6 3.2 0.00 1.04 1.04 99 1004.3
20260505115052 13 49 1.6 4.8 0.00 1.04 1.04 99 1004.2
20260505114548 13 30 1.6 3.2 0.00 1.04 1.04 99 1004.1
20260505114045 13 35 3.2 4.8 0.00 1.04 1.04 99 1004.1
20260505113541 13 37 0.0 0.0 0.00 1.04 1.04 99 1004.2
20260505113038 14 29 4.8 8.0 0.00 1.04 1.04 99 1004.2
20260505112534 14 35 1.6 1.6 0.00 1.04 1.04 99 1004.1
20260505112033 15 34 0.0 1.6 0.00 1.04 1.04 99 1004.0
20260505111532 15 19 1.6 4.8 0.00 1.04 1.04 99 1003.8
20260505111028 15 24 0.0 1.6 0.00 1.04 1.04 99 1003.5
20260505110525 15 24 0.0 1.6 0.00 1.04 1.04 99 1003.6
20260505101957 16 14 0.0 1.6 0.00 1.04 1.04 99 1004.0
20260505101450 16 12 0.0 1.6 0.00 1.04 1.04 99 1003.9
20260505100946 16 11 0.0 1.6 0.00 1.04 1.04 99 1003.8
20260505100444 16 11 1.6 3.2 0.00 1.04 1.04 98 1004.1
20260505095939 16 11 0.0 0.0 0.00 1.04 1.04 98 1004.0
20260505095436 16 10 0.0 1.6 0.00 1.04 1.04 98 1004.2
20260505094932 16 359 1.6 3.2 0.00 1.04 1.04 98 1004.3
20260505094429 16 298 0.0 3.2 0.00 1.04 1.04 98 1004.4
20260505093925 16 320 0.0 3.2 0.00 1.04 1.04 98 1003.8
20260505093422 16 299 3.2 8.0 0.18 1.04 1.04 98 1003.9
20260505092920 16 305 1.6 1.6 0.18 1.04 1.04 98 1003.3
20260505092417 16 276 0.0 0.0 0.00 1.02 1.02 98 1003.6
20260505091914 16 276 0.0 0.0 0.00 1.02 1.02 98 1003.3
20260505091412 16 274 0.0 1.6 0.00 1.02 1.02 98 1003.2
20260505090910 16 251 0.0 0.0 0.13 1.02 1.02 98 1003.0
20260505090408 16 222 0.0 0.0 0.13 1.02 1.02 98 1002.8
20260505085905 16 222 0.0 0.0 0.00 0.99 0.99 98 1003.1
20260505085403 16 207 0.0 3.2 0.18 0.99 0.99 98 1003.1
20260505084900 16 218 1.6 3.2 0.18 0.97 0.97 98 1003.0
20260505084359 16 156 0.0 1.6 0.48 0.97 0.97 98 1003.0
20260505083856 16 160 3.2 4.8 0.79 0.94 0.94 98 1003.2
20260505083354 16 205 1.6 3.2 0.97 0.89 0.89 98 1003.6
20260505082849 16 222 1.6 1.6 0.66 0.81 0.81 98 1003.6
20260505082346 16 255 0.0 4.8 0.18 0.74 0.74 98 1003.4
20260505081843 16 274 1.6 1.6 0.00 0.71 0.71 98 1003.3
20260505081339 16 295 1.6 8.0 0.00 0.71 0.71 98 1003.1
20260505080836 16 280 4.8 4.8 0.00 0.71 0.71 97 1002.7
20260505080332 16 268 0.0 3.2 0.00 0.71 0.71 97 1002.5
20260505075827 16 266 1.6 1.6 0.00 0.71 0.71 97 1002.5
20260505075325 16 218 1.6 3.2 0.00 0.71 0.71 97 1002.3
20260505074822 16 197 1.6 8.0 0.00 0.71 0.71 97 1001.8
20260505074319 16 139 6.4 8.0 0.00 0.71 0.71 97 1001.8
20260505073816 16 190 1.6 8.0 0.00 0.71 0.71 97 1002.4
20260505073314 16 160 4.8 8.0 0.00 0.71 0.71 97 1003.0
20260505072811 16 213 3.2 9.7 0.00 0.71 0.71 97 1002.8
20260505072307 16 230 6.4 9.7 0.00 0.71 0.71 97 1003.4
20260505071803 16 144 4.8 11.3 0.18 0.71 0.71 97 1003.6
20260505071300 16 154 4.8 4.8 0.18 0.71 0.71 96 1003.8
20260505070758 16 170 0.0 3.2 0.13 0.66 0.66 96 1003.9
20260505070254 17 213 3.2 3.2 0.13 0.66 0.66 96 1004.6
20260505065749 17 136 3.2 8.0 0.18 0.66 0.66 96 1005.2
20260505065246 17 156 3.2 4.8 0.30 0.61 0.61 95 1005.5
20260505064743 17 161 4.8 4.8 0.48 0.58 0.58 95 1005.1
20260505064241 17 219 1.6 1.6 0.48 0.56 0.56 95 1005.7
20260505063738 17 250 0.0 0.0 0.48 0.51 0.51 94 1005.8
20260505063234 17 250 0.0 1.6 0.66 0.48 0.48 94 1005.9
20260505062731 17 263 0.0 1.6 0.66 0.43 0.43 93 1005.9
20260505062229 17 288 3.2 8.0 0.84 0.38 0.38 93 1006.4
20260505061725 17 285 3.2 9.7 0.66 0.30 0.30 92 1006.7
20260505061223 17 298 4.8 9.7 0.48 0.23 0.23 90 1006.4
20260505060720 17 244 0.0 3.2 0.48 0.18 0.18 89 1005.7
20260505060217 18 223 1.6 3.2 0.48 0.15 0.15 87 1005.4
20260505055713 18 259 1.6 3.2 0.30 0.08 0.08 85 1005.2
20260505055209 19 282 3.2 9.7 0.18 0.03 0.03 82 1004.9
20260505054707 19 235 0.0 3.2 0.18 0.03 0.03 79 1004.5
20260505054204 20 199 3.2 4.8 0.00 0.00 0.00 77 1004.1
20260505053702 20 209 3.2 8.0 0.00 0.00 0.00 75 1004.2
20260505053158 20 220 3.2 3.2 0.00 0.00 0.00 73 1003.9
20260505052655 20 214 3.2 4.8 0.00 0.00 0.00 72 1003.6
20260505052153 20 192 1.6 4.8 0.00 0.00 0.00 71 1003.7
20260505051649 20 166 3.2 4.8 0.00 0.00 0.00 70 1003.4
20260505051148 20 165 4.8 9.7 0.00 0.00 0.00 70 1003.6
20260505050645 20 192 1.6 8.0 0.00 0.00 0.00 71 1003.6
20260505050144 20 222 1.6 9.7 0.00 0.00 0.00 71 1003.5
20260505041619 21 209 3.2 4.8 0.00 0.00 0.00 70 1003.8
20260505041116 21 178 3.2 4.8 0.00 0.00 0.00 69 1003.6
20260505040613 21 176 3.2 4.8 0.00 0.00 0.00 69 1003.7
20260505040110 21 184 3.2 4.8 0.00 0.00 0.00 68 1003.7
20260505035607 21 161 6.4 11.3 0.00 0.00 0.00 69 1003.7
20260505035103 21 167 4.8 8.0 0.00 0.00 0.00 69 1003.7
20260505034600 21 187 3.2 9.7 0.00 0.00 0.00 69 1004.0
20260505034056 21 182 4.8 8.0 0.00 0.00 0.00 69 1004.1
20260505033553 21 183 4.8 4.8 0.00 0.00 0.00 69 1004.3
20260505033052 21 175 3.2 4.8 0.00 0.00 0.00 69 1004.2
20260505032549 21 175 1.6 4.8 0.00 0.00 0.00 69 1004.1
20260505032045 21 156 4.8 8.0 0.00 0.00 0.00 68 1004.3
20260505031543 21 186 1.6 8.0 0.00 0.00 0.00 68 1004.0
20260505031039 21 171 3.2 8.0 0.00 0.00 0.00 67 1003.9
20260505030536 21 170 3.2 8.0 0.00 0.00 0.00 67 1004.1
20260505030032 21 182 4.8 4.8 0.00 0.00 0.00 67 1003.9
20260505025528 21 201 4.8 8.0 0.00 0.00 0.00 66 1003.8
20260505025028 21 194 6.4 9.7 0.00 0.00 0.00 66 1004.1
20260505024524 21 183 4.8 4.8 0.00 0.00 0.00 66 1004.0
20260505024021 21 197 4.8 9.7 0.00 0.00 0.00 65 1004.0
20260505023518 21 197 4.8 4.8 0.00 0.00 0.00 66 1004.0
20260505023016 21 186 4.8 4.8 0.00 0.00 0.00 66 1003.7
20260505022513 21 158 3.2 8.0 0.00 0.00 0.00 66 1004.1
20260505022010 21 166 1.6 4.8 0.00 0.00 0.00 66 1003.8
20260505021506 22 170 3.2 9.7 0.00 0.00 0.00 65 1003.6
20260505021003 22 149 4.8 8.0 0.00 0.00 0.00 66 1003.8
20260505020458 22 163 4.8 8.0 0.00 0.00 0.00 65 1003.7
20260505015954 22 172 4.8 8.0 0.00 0.00 0.00 66 1003.6
20260505015452 22 183 1.6 9.7 0.00 0.00 0.00 66 1003.5
20260505014949 22 203 1.6 4.8 0.00 0.00 0.00 65 1003.6
20260505014445 22 196 1.6 4.8 0.00 0.00 0.00 65 1003.3
20260505013943 22 182 1.6 3.2 0.00 0.00 0.00 65 1003.4
20260505013440 22 164 4.8 8.0 0.00 0.00 0.00 64 1003.5
20260505012937 22 166 3.2 9.7 0.00 0.00 0.00 65 1003.6
20260505012435 22 210 0.0 4.8 0.00 0.00 0.00 65 1003.4
20260505011931 22 165 4.8 4.8 0.00 0.00 0.00 65 1003.5
20260505011427 22 184 3.2 4.8 0.00 0.00 0.00 65 1003.5
20260505010925 22 199 3.2 4.8 0.00 0.00 0.00 65 1003.4
20260505010420 22 77 1.6 8.0 0.00 0.00 0.00 64 1003.5
20260505005916 22 221 1.6 8.0 0.00 0.00 0.00 63 1003.5
20260505005414 22 197 1.6 4.8 0.00 0.00 0.00 63 1003.3
20260505004911 23 190 1.6 3.2 0.00 0.00 0.00 63 1003.4
20260505004408 23 216 0.0 4.8 0.00 0.00 0.00 62 1003.4
20260505003905 23 222 1.6 8.0 0.00 0.00 0.00 62 1003.4
20260505003402 23 185 1.6 4.8 0.00 0.00 0.00 63 1003.5
20260505002858 23 183 0.0 4.8 0.00 0.00 0.00 62 1003.5
20260505002354 23 202 0.0 3.2 0.00 0.00 0.00 61 1003.4
20260505001853 23 263 0.0 8.0 0.00 0.00 0.00 60 1003.3
20260505001349 24 219 0.0 3.2 0.00 0.00 0.00 60 1003.4
20260505000847 23 231 3.2 8.0 0.00 0.00 0.00 59 1003.2
20260505000344 23 244 4.8 9.7 0.00 0.00 0.00 61 1003.5
20260504235841 24 217 3.2 8.0 0.00 0.00 0.00 61 1003.0
20260504235338 24 209 1.6 3.2 0.00 0.00 0.00 61 1003.1
20260504234835 25 184 3.2 8.0 0.00 0.00 0.00 60 1003.0
20260504234332 25 280 1.6 8.0 0.00 0.00 0.00 57 1003.0
20260504233829 25 265 1.6 3.2 0.00 0.00 0.00 58 1003.1
20260504233324 25 281 0.0 3.2 0.00 0.00 0.00 56 1003.2
20260504232821 25 284 3.2 4.8 0.00 0.00 0.00 57 1003.1
20260504232319 25 252 1.6 8.0 0.00 0.00 0.00 59 1003.3
20260504231815 25 251 1.6 1.6 0.00 0.00 0.00 59 1003.1
20260504231312 25 212 1.6 3.2 0.00 0.00 0.00 58 1003.0
20260504230808 25 218 0.0 8.0 0.00 0.00 0.00 59 1003.0
20260504230306 25 203 4.8 16.1 0.00 0.00 0.00 57 1003.1
20260504225805 26 207 1.6 12.9 0.00 0.00 0.00 55 1003.1
20260504225301 26 268 1.6 4.8 0.00 0.00 0.00 55 1003.0
20260504224758 25 177 3.2 4.8 0.00 0.00 0.00 56 1003.0
20260504224255 25 257 1.6 12.9 0.00 0.00 0.00 56 1003.0
20260504223751 26 181 4.8 8.0 0.00 0.00 0.00 54 1002.7
20260504223247 26 249 3.2 8.0 0.00 0.00 0.00 53 1003.0
20260504222744 27 231 8.0 14.5 0.00 0.00 0.00 53 1002.8
20260504222241 27 252 1.6 14.5 0.00 0.00 0.00 52 1002.7
20260504221738 27 231 1.6 8.0 0.00 0.00 0.00 54 1002.6
20260504221235 26 203 4.8 20.9 0.00 0.00 0.00 52 1002.9
20260504220732 26 205 3.2 11.3 0.00 0.00 0.00 53 1002.9
20260504220229 27 288 3.2 4.8 0.00 0.00 0.00 51 1002.7
20260504215726 27 208 3.2 14.5 0.00 0.00 0.00 50 1002.8
20260504215217 26 219 3.2 11.3 0.00 0.00 0.00 53 1002.9
20260504214713 26 236 3.2 12.9 0.00 0.00 0.00 54 1002.8
20260504214210 27 171 3.2 12.9 0.00 0.00 0.00 51 1003.0
20260504213706 27 212 3.2 9.7 0.00 0.00 0.00 50 1003.1
20260504213203 27 241 1.6 8.0 0.00 0.00 0.00 50 1002.8
20260504212700 27 264 4.8 14.5 0.00 0.00 0.00 50 1003.2
20260504212156 26 175 6.4 9.7 0.00 0.00 0.00 53 1003.0
20260504211654 27 197 3.2 14.5 0.00 0.00 0.00 53 1003.1
20260504211150 27 232 3.2 9.7 0.00 0.00 0.00 53 1003.1
20260504210648 27 174 3.2 9.7 0.00 0.00 0.00 54 1003.1
20260504210144 27 223 4.8 12.9 0.00 0.00 0.00 52 1003.2
20260504205642 28 293 3.2 8.0 0.00 0.00 0.00 50 1003.2
20260504205138 27 187 1.6 9.7 0.00 0.00 0.00 51 1003.2
20260504204637 26 244 1.6 11.3 0.00 0.00 0.00 55 1003.3
20260504204136 27 168 4.8 12.9 0.00 0.00 0.00 54 1003.6
20260504203634 26 176 6.4 11.3 0.00 0.00 0.00 54 1003.6
20260504203131 27 173 8.0 14.5 0.00 0.00 0.00 52 1003.6
20260504202626 27 193 3.2 11.3 0.00 0.00 0.00 54 1003.8
20260504202123 27 168 4.8 11.3 0.00 0.00 0.00 50 1004.0
20260504201619 27 232 4.8 22.5 0.00 0.00 0.00 50 1004.0
20260504201118 27 241 9.7 14.5 0.00 0.00 0.00 50 1003.8
20260504200614 26 180 4.8 9.7 0.00 0.00 0.00 53 1003.9
20260504200111 27 194 4.8 14.5 0.00 0.00 0.00 52 1003.7
20260504195607 27 169 8.0 17.7 0.00 0.00 0.00 53 1003.9
20260504195103 27 226 4.8 11.3 0.00 0.00 0.00 53 1004.1
20260504194600 27 257 1.6 12.9 0.00 0.00 0.00 56 1004.1
20260504194055 27 231 1.6 12.9 0.00 0.00 0.00 52 1004.1
20260504193552 27 234 3.2 8.0 0.00 0.00 0.00 54 1004.2
20260504193051 27 214 3.2 16.1 0.00 0.00 0.00 52 1004.1
20260504192549 27 106 6.4 17.7 0.00 0.00 0.00 50 1004.3
20260504192046 27 207 4.8 9.7 0.00 0.00 0.00 53 1004.4
20260504191544 27 200 3.2 8.0 0.00 0.00 0.00 54 1004.4
20260504191040 27 259 1.6 11.3 0.00 0.00 0.00 53 1004.6
20260504190537 27 284 3.2 20.9 0.00 0.00 0.00 51 1004.5
20260504190033 27 181 4.8 9.7 0.00 0.00 0.00 52 1004.4
20260504185530 27 224 3.2 4.8 0.00 0.00 0.00 50 1004.4
20260504185026 27 246 8.0 16.1 0.00 0.00 0.00 49 1004.6
20260504184522 27 218 4.8 12.9 0.00 0.00 0.00 49 1004.5
20260504184017 27 247 6.4 8.0 0.00 0.00 0.00 50 1004.4
20260504183515 27 262 3.2 11.3 0.00 0.00 0.00 52 1004.3
20260504183013 26 255 1.6 25.7 0.00 0.00 0.00 53 1004.3
20260504182509 26 289 8.0 11.3 0.00 0.00 0.00 50 1004.4
20260504182007 26 298 4.8 20.9 0.00 0.00 0.00 51 1004.5
20260504181504 26 202 8.0 11.3 0.00 0.00 0.00 51 1004.6
20260504181003 26 192 6.4 9.7 0.00 0.00 0.00 51 1004.4
20260504180501 25 195 8.0 14.5 0.00 0.00 0.00 52 1004.5
20260504175959 25 174 3.2 9.7 0.00 0.00 0.00 55 1004.5
20260504175456 25 174 4.8 14.5 0.00 0.00 0.00 54 1004.7
20260504174953 26 164 3.2 12.9 0.00 0.00 0.00 53 1004.7
20260504174451 26 145 4.8 9.7 0.00 0.00 0.00 52 1004.7
20260504173948 26 294 8.0 20.9 0.00 0.00 0.00 53 1004.9
20260504173444 26 259 3.2 14.5 0.00 0.00 0.00 52 1004.7
20260504172942 26 103 4.8 14.5 0.00 0.00 0.00 52 1004.7
20260504172437 26 153 1.6 4.8 0.00 0.00 0.00 53 1004.6
20260504171934 25 134 4.8 11.3 0.00 0.00 0.00 53 1004.6
20260504171431 25 288 3.2 9.7 0.00 0.00 0.00 52 1004.8
20260504170928 25 317 3.2 11.3 0.00 0.00 0.00 52 1004.9
20260504170424 25 168 6.4 22.5 0.00 0.00 0.00 54 1005.1
20260504160343 23 210 4.8 11.3 0.00 0.00 0.00 58 1005.4